Time,TemperatureF,DewpointF,PressureIn,WindDirection,WindDirectionDegrees,WindSpeedMPH,WindSpeedGustMPH,Humidity,HourlyPrecipIn,Conditions,Clouds,dailyrainin,SoftwareType,DateUTC
2013-07-06 00:02:00,85.0,65.0,-100.00,North,-999,-999.0,-999.0,51,0.00,,,0.00,,2013-07-06 05:02:00,
2013-07-06 00:22:00,84.0,65.0,-100.00,North,-999,-999.0,-999.0,52,0.00,,,0.00,,2013-07-06 05:22:00,
2013-07-06 00:33:00,84.0,65.0,-100.00,North,-999,-999.0,-999.0,53,0.00,,,0.00,,2013-07-06 05:33:00,
2013-07-06 00:53:00,83.0,65.0,-100.00,North,-999,-999.0,-999.0,54,0.00,,,0.00,,2013-07-06 05:53:00,
2013-07-06 01:02:00,83.0,65.0,-100.00,North,-999,-999.0,-999.0,54,0.00,,,0.00,,2013-07-06 06:02:00,
2013-07-06 01:22:00,83.0,65.0,-100.00,North,-999,-999.0,-999.0,55,0.00,,,0.00,,2013-07-06 06:22:00,
2013-07-06 01:34:00,82.0,65.0,-100.00,North,-999,-999.0,-999.0,56,0.00,,,0.00,,2013-07-06 06:34:00,
2013-07-06 01:43:00,82.0,65.0,-100.00,North,-999,-999.0,-999.0,56,0.00,,,0.00,,2013-07-06 06:43:00,
2013-07-06 01:53:00,82.0,65.0,-100.00,North,-999,-999.0,-999.0,56,0.00,,,0.00,,2013-07-06 06:53:00,
2013-07-06 02:02:00,81.0,64.0,-100.00,North,-999,-999.0,-999.0,57,0.00,,,0.00,,2013-07-06 07:02:00,
2013-07-06 02:22:00,81.0,65.0,-100.00,North,-999,-999.0,-999.0,58,0.00,,,0.00,,2013-07-06 07:22:00,
2013-07-06 02:33:00,80.0,64.0,-100.00,North,-999,-999.0,-999.0,58,0.00,,,0.00,,2013-07-06 07:33:00,
2013-07-06 02:52:00,80.0,64.0,-100.00,North,-999,-999.0,-999.0,59,0.00,,,0.00,,2013-07-06 07:52:00,
2013-07-06 03:02:00,79.0,64.0,-100.00,North,-999,-999.0,-999.0,60,0.00,,,0.00,,2013-07-06 08:02:00,
2013-07-06 03:21:00,79.0,65.0,-100.00,North,-999,-999.0,-999.0,62,0.00,,,0.00,,2013-07-06 08:21:00,
2013-07-06 03:34:00,78.0,64.0,-100.00,North,-999,-999.0,-999.0,62,0.00,,,0.00,,2013-07-06 08:34:00,
2013-07-06 03:54:00,77.0,64.0,-100.00,North,-999,-999.0,-999.0,64,0.00,,,0.00,,2013-07-06 08:54:00,
2013-07-06 04:02:00,76.0,64.0,-100.00,North,-999,-999.0,-999.0,67,0.00,,,0.00,,2013-07-06 09:02:00,
2013-07-06 04:22:00,75.0,64.0,-100.00,North,-999,-999.0,-999.0,69,0.00,,,0.00,,2013-07-06 09:22:00,
2013-07-06 04:33:00,74.0,64.0,-100.00,North,-999,-999.0,-999.0,70,0.00,,,0.00,,2013-07-06 09:33:00,
2013-07-06 04:52:00,73.0,64.0,-100.00,North,-999,-999.0,-999.0,72,0.00,,,0.00,,2013-07-06 09:52:00,
2013-07-06 05:02:00,72.0,64.0,-100.00,North,-999,-999.0,-999.0,75,0.00,,,0.00,,2013-07-06 10:02:00,
2013-07-06 05:22:00,71.0,63.0,-100.00,North,-999,-999.0,-999.0,75,0.00,,,0.00,,2013-07-06 10:22:00,
2013-07-06 05:33:00,71.0,63.0,-100.00,North,-999,-999.0,-999.0,77,0.00,,,0.00,,2013-07-06 10:33:00,
2013-07-06 05:53:00,70.0,63.0,-100.00,North,-999,-999.0,-999.0,78,0.00,,,0.00,,2013-07-06 10:53:00,
2013-07-06 06:01:00,69.0,62.0,-100.00,North,-999,-999.0,-999.0,79,0.00,,,0.00,,2013-07-06 11:01:00,
2013-07-06 06:22:00,68.0,62.0,-100.00,North,-999,-999.0,-999.0,80,0.00,,,0.00,,2013-07-06 11:22:00,
2013-07-06 06:33:00,68.0,62.0,-100.00,North,-999,-999.0,-999.0,80,0.00,,,0.00,,2013-07-06 11:33:00,
2013-07-06 07:01:00,68.0,62.0,-100.00,North,-999,-999.0,-999.0,81,0.00,,,0.00,,2013-07-06 12:01:00,
2013-07-06 07:22:00,68.0,61.0,-100.00,North,-999,-999.0,-999.0,80,0.00,,,0.00,,2013-07-06 12:22:00,
2013-07-06 07:33:00,69.0,62.0,-100.00,North,-999,-999.0,-999.0,79,0.00,,,0.00,,2013-07-06 12:33:00,
2013-07-06 07:43:00,69.0,62.0,-100.00,North,-999,-999.0,-999.0,79,0.00,,,0.00,,2013-07-06 12:43:00,
2013-07-06 07:52:00,69.0,62.0,-100.00,North,-999,-999.0,-999.0,79,0.00,,,0.00,,2013-07-06 12:52:00,
2013-07-06 08:01:00,73.0,64.0,-100.00,North,-999,-999.0,-999.0,72,0.00,,,0.00,,2013-07-06 13:01:00,
2013-07-06 08:22:00,75.0,65.0,-100.00,North,-999,-999.0,-999.0,69,0.00,,,0.00,,2013-07-06 13:22:00,
2013-07-06 08:33:00,77.0,66.0,-100.00,North,-999,-999.0,-999.0,70,0.00,,,0.00,,2013-07-06 13:33:00,
2013-07-06 08:52:00,78.0,67.0,-100.00,North,-999,-999.0,-999.0,69,0.00,,,0.00,,2013-07-06 13:52:00,
2013-07-06 09:02:00,78.0,68.0,-100.00,North,-999,-999.0,-999.0,69,0.00,,,0.00,,2013-07-06 14:02:00,
2013-07-06 09:22:00,79.0,68.0,-100.00,North,-999,-999.0,-999.0,67,0.00,,,0.00,,2013-07-06 14:22:00,
2013-07-06 09:34:00,81.0,67.0,-100.00,North,-999,-999.0,-999.0,63,0.00,,,0.00,,2013-07-06 14:34:00,
2013-07-06 09:53:00,82.0,66.0,-100.00,North,-999,-999.0,-999.0,57,0.00,,,0.00,,2013-07-06 14:53:00,
2013-07-06 10:02:00,83.0,64.0,-100.00,North,-999,-999.0,-999.0,52,0.00,,,0.00,,2013-07-06 15:02:00,
2013-07-06 10:22:00,84.0,64.0,-100.00,North,-999,-999.0,-999.0,51,0.00,,,0.00,,2013-07-06 15:22:00,
2013-07-06 10:33:00,84.0,64.0,-100.00,North,-999,-999.0,-999.0,51,0.00,,,0.00,,2013-07-06 15:33:00,
2013-07-06 10:53:00,86.0,64.0,-100.00,North,-999,-999.0,-999.0,49,0.00,,,0.00,,2013-07-06 15:53:00,
2013-07-06 11:23:00,87.0,65.0,-100.00,North,-999,-999.0,-999.0,49,0.00,,,0.00,,2013-07-06 16:23:00,
2013-07-06 11:41:00,88.0,62.0,-100.00,North,-999,-999.0,-999.0,43,0.00,,,0.00,,2013-07-06 16:41:00,
2013-07-06 11:59:00,88.0,63.0,-100.00,North,-999,-999.0,-999.0,44,0.00,,,0.00,,2013-07-06 16:59:00,
2013-07-06 12:59:00,92.0,61.0,-100.00,North,-999,-999.0,-999.0,36,0.00,,,0.00,,2013-07-06 17:59:00,
2013-07-06 13:08:00,91.0,59.0,-100.00,North,-999,-999.0,-999.0,34,0.00,,,0.00,,2013-07-06 18:08:00,
2013-07-06 13:41:00,92.0,59.0,-100.00,North,-999,-999.0,-999.0,33,0.00,,,0.00,,2013-07-06 18:41:00,
2013-07-06 13:59:00,93.0,59.0,-100.00,North,-999,-999.0,-999.0,32,0.00,,,0.00,,2013-07-06 18:59:00,
2013-07-06 14:08:00,93.0,57.0,-100.00,North,-999,-999.0,-999.0,30,0.00,,,0.00,,2013-07-06 19:08:00,
2013-07-06 14:29:00,94.0,58.0,-100.00,North,-999,-999.0,-999.0,31,0.00,,,0.00,,2013-07-06 19:29:00,
2013-07-06 14:40:00,95.0,58.0,-100.00,North,-999,-999.0,-999.0,29,0.00,,,0.00,,2013-07-06 19:40:00,
2013-07-06 14:55:00,95.0,57.0,-100.00,North,-999,-999.0,-999.0,29,0.00,,,0.00,,2013-07-06 19:55:00,
2013-07-06 15:10:00,94.0,59.0,-100.00,North,-999,-999.0,-999.0,31,0.00,,,0.00,,2013-07-06 20:10:00,
2013-07-06 15:42:00,95.0,58.0,-100.00,North,-999,-999.0,-999.0,29,0.00,,,0.00,,2013-07-06 20:42:00,
2013-07-06 16:29:00,97.0,57.0,-100.00,North,-999,-999.0,-999.0,27,0.00,,,0.00,,2013-07-06 21:29:00,
2013-07-06 17:10:00,96.0,55.0,-100.00,North,-999,-999.0,-999.0,26,0.00,,,0.00,,2013-07-06 22:10:00,
2013-07-06 17:59:00,96.0,55.0,-100.00,North,-999,-999.0,-999.0,25,0.00,,,0.00,,2013-07-06 22:59:00,
2013-07-06 18:09:00,96.0,55.0,-100.00,North,-999,-999.0,-999.0,25,0.00,,,0.00,,2013-07-06 23:09:00,
2013-07-06 18:29:00,96.0,54.0,-100.00,North,-999,-999.0,-999.0,25,0.00,,,0.00,,2013-07-06 23:29:00,
2013-07-06 18:42:00,96.0,54.0,-100.00,North,-999,-999.0,-999.0,25,0.00,,,0.00,,2013-07-06 23:42:00,
2013-07-06 18:59:00,95.0,55.0,-100.00,North,-999,-999.0,-999.0,26,0.00,,,0.00,,2013-07-06 23:59:00,
2013-07-06 19:28:00,95.0,55.0,-100.00,North,-999,-999.0,-999.0,27,0.00,,,0.00,,2013-07-07 00:28:00,
2013-07-06 19:40:00,94.0,55.0,-100.00,North,-999,-999.0,-999.0,27,0.00,,,0.00,,2013-07-07 00:40:00,
2013-07-06 20:09:00,93.0,56.0,-100.00,North,-999,-999.0,-999.0,29,0.00,,,0.00,,2013-07-07 01:09:00,
2013-07-06 20:28:00,91.0,56.0,-100.00,North,-999,-999.0,-999.0,31,0.00,,,0.00,,2013-07-07 01:28:00,
2013-07-06 21:09:00,89.0,56.0,-100.00,North,-999,-999.0,-999.0,33,0.00,,,0.00,,2013-07-07 02:09:00,
2013-07-06 21:37:00,85.0,58.0,-100.00,North,-999,-999.0,-999.0,40,0.00,,,0.00,,2013-07-07 02:37:00,
2013-07-06 21:46:00,85.0,58.0,-100.00,North,-999,-999.0,-999.0,40,0.00,,,0.00,,2013-07-07 02:46:00,
2013-07-06 21:55:00,84.0,58.0,-100.00,North,-999,-999.0,-999.0,41,0.00,,,0.00,,2013-07-07 02:55:00,
2013-07-06 22:27:00,82.0,57.0,-100.00,North,-999,-999.0,-999.0,42,0.00,,,0.00,,2013-07-07 03:27:00,
2013-07-06 22:36:00,83.0,58.0,-100.00,North,-999,-999.0,-999.0,43,0.00,,,0.00,,2013-07-07 03:36:00,
2013-07-06 22:46:00,83.0,58.0,-100.00,North,-999,-999.0,-999.0,43,0.00,,,0.00,,2013-07-07 03:46:00,
2013-07-06 23:01:00,85.0,59.0,-100.00,North,-999,-999.0,-999.0,41,0.00,,,0.00,,2013-07-07 04:01:00,
2013-07-06 23:11:00,85.0,59.0,-100.00,North,-999,-999.0,-999.0,41,0.00,,,0.00,,2013-07-07 04:11:00,
2013-07-06 23:21:00,85.0,60.0,-100.00,North,-999,-999.0,-999.0,42,0.00,,,0.00,,2013-07-07 04:21:00,
2013-07-06 23:31:00,85.0,63.0,-100.00,North,-999,-999.0,-999.0,47,0.00,,,0.00,,2013-07-07 04:31:00,
2013-07-06 23:41:00,85.0,63.0,-100.00,North,-999,-999.0,-999.0,47,0.00,,,0.00,,2013-07-07 04:41:00,
2013-07-06 23:51:00,85.0,64.0,-100.00,North,-999,-999.0,-999.0,50,0.00,,,0.00,,2013-07-07 04:51:00,